Hourly Weather Alibaevskoe

Today, 27 July, Tuesday

Time Temperature Precipitation Wind Pressure Humidity
00:00 +13°C° 0 mm 3 mps 729 mmHg 58%
01:00 +13°C° 0 mm 3 mps 729 mmHg 59%
02:00 +13°C° 0 mm 3 mps 729 mmHg 58%
03:00 +14°C° 0 mm 2 mps 729 mmHg 58%
04:00 +14°C° 0 mm 2 mps 729 mmHg 57%
05:00 +15°C° 0 mm 2 mps 729 mmHg 55%
06:00 +16°C° 0 mm 2 mps 729 mmHg 52%
07:00 +16°C° 0 mm 1 mps 729 mmHg 50%
08:00 +19°C° 0 mm 1 mps 729 mmHg 44%
09:00 +21°C° 0 mm 1 mps 729 mmHg 38%
10:00 +22°C° 0 mm 1 mps 729 mmHg 33%
11:00 +23°C° 0 mm 1 mps 728 mmHg 30%
12:00 +24°C° 0 mm 2 mps 728 mmHg 28%
13:00 +25°C° 0 mm 2 mps 728 mmHg 26%
14:00 +26°C° 0 mm 3 mps 727 mmHg 26%
15:00 +26°C° 0 mm 3 mps 727 mmHg 26%
16:00 +26°C° 0 mm 4 mps 727 mmHg 25%
17:00 +25°C° 0 mm 4 mps 726 mmHg 29%
18:00 +23°C° 0 mm 4 mps 726 mmHg 34%
19:00 +22°C° 0 mm 4 mps 726 mmHg 38%
20:00 +20°C° 0 mm 3 mps 726 mmHg 43%
21:00 +18°C° 0 mm 2 mps 726 mmHg 48%
22:00 +17°C° 0 mm 2 mps 726 mmHg 52%
23:00 +16°C° 0 mm 2 mps 726 mmHg 52%

Tomorrow, 28 July, Wednesday

Time Temperature Precipitation Wind Pressure Humidity
00:00 +16°C° 0 mm 2 mps 726 mmHg 52%
01:00 +16°C° 0 mm 2 mps 725 mmHg 52%
02:00 +16°C° 0 mm 2 mps 725 mmHg 53%
03:00 +16°C° 0 mm 2 mps 725 mmHg 54%
04:00 +14°C° 0 mm 3 mps 725 mmHg 54%
05:00 +16°C° 0 mm 3 mps 725 mmHg 55%
06:00 +18°C° 0 mm 4 mps 725 mmHg 56%
07:00 +19°C° 0 mm 4 mps 725 mmHg 57%
08:00 +20°C° 0 mm 4 mps 725 mmHg 52%
09:00 +21°C° 0 mm 5 mps 725 mmHg 46%
10:00 +23°C° 0 mm 5 mps 725 mmHg 40%
11:00 +23°C° 0 mm 5 mps 725 mmHg 36%
12:00 +24°C° 0 mm 6 mps 725 mmHg 32%
13:00 +24°C° 0 mm 6 mps 724 mmHg 28%
14:00 +24°C° 0 mm 6 mps 724 mmHg 28%
15:00 +26°C° 0 mm 6 mps 724 mmHg 27%
16:00 +26°C° 0 mm 6 mps 724 mmHg 26%
17:00 +23°C° 0 mm 6 mps 724 mmHg 29%
18:00 +22°C° 0 mm 5 mps 725 mmHg 32%
19:00 +21°C° 0 mm 5 mps 725 mmHg 35%
20:00 +19°C° 0 mm 4 mps 725 mmHg 39%
21:00 +17°C° 0 mm 4 mps 725 mmHg 43%
22:00 +14°C° 0 mm 3 mps 726 mmHg 47%
23:00 +14°C° 0 mm 2 mps 726 mmHg 51%

Day after tomorrow, 29 July, Thursday

Time Temperature Precipitation Wind Pressure Humidity
00:00 +13°C° 0 mm 1 mps 726 mmHg 55%
01:00 +12°C° 0 mm 1 mps 726 mmHg 58%
02:00 +12°C° 0 mm 1 mps 726 mmHg 59%
03:00 +12°C° 0 mm 1 mps 726 mmHg 60%
04:00 +11°C° 0 mm 1 mps 726 mmHg 60%
05:00 +13°C° 0 mm 2 mps 726 mmHg 55%
06:00 +15°C° 0 mm 2 mps 727 mmHg 50%
07:00 +16°C° 0 mm 3 mps 727 mmHg 45%
08:00 +18°C° 0 mm 3 mps 727 mmHg 40%
09:00 +20°C° 0 mm 4 mps 727 mmHg 34%
10:00 +22°C° 0 mm 4 mps 727 mmHg 29%
11:00 +23°C° 0 mm 4 mps 727 mmHg 26%
12:00 +25°C° 0 mm 4 mps 726 mmHg 24%
13:00 +26°C° 0 mm 5 mps 726 mmHg 22%
14:00 +27°C° 0 mm 5 mps 726 mmHg 21%
15:00 +27°C° 0 mm 5 mps 726 mmHg 21%
16:00 +27°C° 0 mm 5 mps 725 mmHg 21%
17:00 +26°C° 0 mm 3 mps 725 mmHg 24%
18:00 +25°C° 0 mm 2 mps 725 mmHg 28%
19:00 +24°C° 0 mm 1 mps 725 mmHg 31%
20:00 +23°C° 0 mm 1 mps 724 mmHg 32%
21:00 +22°C° 0 mm 1 mps 724 mmHg 32%
22:00 +20°C° 0 mm 2 mps 724 mmHg 33%
23:00 +20°C° 0 mm 2 mps 724 mmHg 35%

30 July, Friday

Time Temperature Precipitation Wind Pressure Humidity
00:00 +20°C° 0 mm 3 mps 724 mmHg 37%
01:00 +19°C° 0 mm 4 mps 724 mmHg 39%
02:00 +18°C° 1.3 mm 4 mps 724 mmHg 56%
03:00 +17°C° 1.3 mm 3 mps 723 mmHg 74%
04:00 +14°C° 1.3 mm 3 mps 723 mmHg 91%
05:00 +16°C° 0.1 mm 3 mps 723 mmHg 89%
06:00 +16°C° 0.1 mm 3 mps 723 mmHg 86%
07:00 +17°C° 0.1 mm 3 mps 723 mmHg 84%
08:00 +19°C° 0 mm 4 mps 722 mmHg 74%
09:00 +20°C° 0 mm 4 mps 722 mmHg 63%
10:00 +22°C° 0 mm 4 mps 722 mmHg 53%
11:00 +24°C° 0 mm 6 mps 722 mmHg 49%
12:00 +28°C° 0 mm 7 mps 722 mmHg 46%
13:00 +31°C° 0 mm 8 mps 722 mmHg 42%
14:00 +29°C° 0 mm 8 mps 722 mmHg 43%
15:00 +29°C° 0 mm 8 mps 722 mmHg 44%
16:00 +29°C° 0 mm 7 mps 722 mmHg 45%
17:00 +27°C° 0.8 mm 7 mps 722 mmHg 57%
18:00 +23°C° 0.8 mm 6 mps 722 mmHg 68%
19:00 +21°C° 0.8 mm 6 mps 722 mmHg 80%
20:00 +20°C° 0.6 mm 5 mps 722 mmHg 83%
21:00 +19°C° 0.6 mm 3 mps 722 mmHg 87%
22:00 +18°C° 0.6 mm 2 mps 722 mmHg 90%
23:00 +18°C° 0.3 mm 2 mps 722 mmHg 91%

31 July, Saturday

Time Temperature Precipitation Wind Pressure Humidity
00:00 +18°C° 0.3 mm 3 mps 722 mmHg 92%
01:00 +18°C° 0.3 mm 3 mps 723 mmHg 93%
02:00 +18°C° 0 mm 3 mps 722 mmHg 92%
03:00 +18°C° 0 mm 3 mps 722 mmHg 91%
04:00 +18°C° 0 mm 2 mps 722 mmHg 90%
05:00 +19°C° 0 mm 3 mps 723 mmHg 86%
06:00 +20°C° 0 mm 3 mps 723 mmHg 81%
07:00 +21°C° 0 mm 3 mps 724 mmHg 77%
08:00 +24°C° 0 mm 3 mps 724 mmHg 68%
09:00 +26°C° 0 mm 4 mps 724 mmHg 59%
10:00 +28°C° 0 mm 4 mps 724 mmHg 51%
11:00 +29°C° 0 mm 4 mps 724 mmHg 46%
12:00 +30°C° 0 mm 4 mps 724 mmHg 40%
13:00 +32°C° 0 mm 5 mps 724 mmHg 35%
14:00 +32°C° 0 mm 5 mps 724 mmHg 35%
15:00 +32°C° 0 mm 5 mps 724 mmHg 34%
16:00 +32°C° 0 mm 5 mps 724 mmHg 33%
17:00 +30°C° 0 mm 4 mps 724 mmHg 39%
18:00 +28°C° 0 mm 4 mps 725 mmHg 44%
19:00 +27°C° 0 mm 3 mps 725 mmHg 49%
20:00 +26°C° 0 mm 2 mps 725 mmHg 51%
21:00 +25°C° 0 mm 2 mps 725 mmHg 53%
22:00 +23°C° 0 mm 1 mps 725 mmHg 56%
23:00 +23°C° 0 mm 1 mps 725 mmHg 57%

1 August, Sunday

Time Temperature Precipitation Wind Pressure Humidity
00:00 +22°C° 0 mm 1 mps 725 mmHg 58%
01:00 +22°C° 0 mm 1 mps 725 mmHg 60%
02:00 +22°C° 0 mm 1 mps 725 mmHg 60%
03:00 +21°C° 0 mm 1 mps 725 mmHg 61%
04:00 +19°C° 0 mm 0 mps 725 mmHg 61%
05:00 +22°C° 0 mm 1 mps 726 mmHg 57%
06:00 +24°C° 0 mm 1 mps 726 mmHg 54%
07:00 +25°C° 0 mm 1 mps 726 mmHg 50%
08:00 +27°C° 0 mm 2 mps 726 mmHg 46%
09:00 +29°C° 0 mm 2 mps 726 mmHg 42%
10:00 +31°C° 0 mm 3 mps 726 mmHg 38%
11:00 +33°C° 0 mm 3 mps 726 mmHg 36%
12:00 +34°C° 0 mm 3 mps 725 mmHg 33%
13:00 +34°C° 0 mm 3 mps 725 mmHg 31%
14:00 +34°C° 0 mm 3 mps 725 mmHg 32%
15:00 +33°C° 0 mm 4 mps 725 mmHg 33%
16:00 +33°C° 0 mm 4 mps 725 mmHg 34%
17:00 +31°C° 0.1 mm 3 mps 725 mmHg 38%
18:00 +30°C° 0.1 mm 2 mps 725 mmHg 42%
19:00 +28°C° 0.1 mm 1 mps 725 mmHg 47%
20:00 +27°C° 0.1 mm 2 mps 725 mmHg 52%
21:00 +25°C° 0.1 mm 3 mps 725 mmHg 58%
22:00 +24°C° 0.1 mm 3 mps 725 mmHg 64%
23:00 +22°C° 0.1 mm 3 mps 725 mmHg 66%
Show more

We Need Your Consent

Meteoprog and our Service Providers may store and access personal data such as cookies, device identifiers or other similar technologies on your device and process such data to personalise content and ads, as well as provide social media features and to analyse the traffic.

  • Store and/or access information on your device

    Cookies, device identifiers or other information can be stored or accessed on your device for the purposes indicated above.

  • Personalised ads and content, ad and content measurement, audience insights, and products development

    Ads and content can be personalised based on a profile. More data can be added to better personalise ads and content. Ad and content performance can be measured. Insights about the audience who saw the ads and content can be derived. Such data can be used to develop or improve user’s experience, systems and software.

By clicking ‘I Agree’ you will allow the use of indicated cookies, device identifiers, web beacons or other similar technologies. Your settings can be changed in the browser on your device.

For certain purposes, legitimate interests may be relied on, rather than consent. You can read more about this in our Privacy and Cookie Policy.